Denver, CO

9:40 PM MST on February 21, 2018 (GMT -0700)
Front Range

Weather History for KFTG - December, 2012

Change the Weather History Date:

Wednesday, December 26, 2012

  Actual Average (KBKF) Record (KBKF)
Temperature  
Mean Temperature 12 °F -  
Max Temperature 24 °F 42 °F 64 °F (2005)
Min Temperature 1 °F 21 °F 1 °F (2012)
Degree Days  
Heating Degree Days 52    
Moisture  
Dew Point 6 °F    
Average Humidity 84    
Maximum Humidity 92    
Minimum Humidity 69    
Precipitation  
Precipitation 0.00 in - - ()
Sea Level Pressure  
Sea Level Pressure 29.78 in    
Wind  
Wind Speed 5 mph (South)    
Max Wind Speed 9 mph    
Max Gust Speed -    
Visibility 10 miles    
Events      
Averages and records for this station are not official NWS values.
T = Trace of Precipitation, MM = Missing Value Source: NWS Daily Summary

Daily Weather History Graph

Daily Weather History Graph

Search for Another Location

Airport or City:

Trip Planner

Search our weather history database for the weather conditions in past years. The results will help you decide how hot, cold, wet, or windy it might be!

Date:

Astronomy

Dec. 26, 2012 Rise Set
Actual Time 7:18 AM MST 4:40 PM MST
Civil Twilight 6:47 AM MST 5:10 PM MST
Nautical Twilight 6:13 AM MST 5:44 PM MST
Astronomical Twilight 5:40 AM MST 6:17 PM MST
Moon 3:35 PM MST (12/26) 5:43 AM MST (12/26)
Length of Visible Light 10h 22m
Length of Day
9h 21m
Waxing Gibbous, 98% of the Moon is Illuminated
Dec 26
Waxing Gibbous
Dec 28
Full
Jan 4
Last Quarter
Jan 11
New
Jan 18
First Quarter

Hourly Weather History & Observations

Time (MST) Temp. Windchill Dew Point Humidity Pressure Visibility Wind Dir Wind Speed Gust Speed Precip Events Conditions
12:03 AM 6.8 °F -4.8 °F 3.2 °F 85% 29.97 in 10.0 mi WSW 6.9 mph - N/A   Clear
12:23 AM 8.6 °F -2.6 °F 3.2 °F 79% 29.96 in 10.0 mi SW 6.9 mph - N/A   Clear
12:43 AM 8.6 °F 0.1 °F 5.0 °F 85% 29.95 in 10.0 mi SW 4.6 mph - N/A   Clear
1:03 AM 5.0 °F -4.1 °F 1.4 °F 85% 29.93 in 10.0 mi SSW 4.6 mph - N/A   Clear
1:23 AM 3.2 °F -6.2 °F -0.4 °F 85% 29.91 in 10.0 mi South 4.6 mph - N/A   Clear
1:43 AM 1.4 °F -9.9 °F -2.2 °F 85% 29.91 in 10.0 mi South 5.8 mph - N/A   Clear
2:03 AM 5.0 °F -6.9 °F 3.2 °F 92% 29.93 in 10.0 mi SW 6.9 mph - N/A   Clear
2:23 AM 6.8 °F -2.0 °F 1.4 °F 79% 29.92 in 10.0 mi SSW 4.6 mph - N/A   Clear
2:43 AM 5.0 °F -4.1 °F 1.4 °F 85% 29.91 in 10.0 mi South 4.6 mph - N/A   Clear
3:03 AM 3.2 °F -9.1 °F 1.4 °F 92% 29.90 in 10.0 mi SSE 6.9 mph - N/A   Clear
3:23 AM 3.2 °F -7.8 °F -2.2 °F 78% 29.89 in 10.0 mi South 5.8 mph - N/A   Clear
3:42 AM 3.2 °F -4.2 °F -0.4 °F 85% 29.88 in 10.0 mi SSE 3.5 mph - N/A   Clear
4:03 AM 6.8 °F -3.5 °F 3.2 °F 85% 29.87 in 10.0 mi SE 5.8 mph - N/A   Clear
4:23 AM 10.4 °F -0.4 °F 5.0 °F 79% 29.85 in 10.0 mi ESE 6.9 mph - N/A   Clear
4:43 AM 10.4 °F 2.2 °F 5.0 °F 79% 29.84 in 10.0 mi SE 4.6 mph - N/A   Clear
5:03 AM 12.2 °F 4.3 °F 6.8 °F 79% 29.84 in 10.0 mi SE 4.6 mph - N/A   Clear
5:23 AM 12.2 °F - 8.6 °F 85% 29.83 in 10.0 mi Calm Calm - N/A   Clear
5:43 AM 14.0 °F - 10.4 °F 86% 29.83 in 10.0 mi Calm Calm - N/A   Clear
6:03 AM 12.2 °F 4.3 °F 8.6 °F 85% 29.83 in 10.0 mi East 4.6 mph - N/A   Clear
6:23 AM 14.0 °F 5.1 °F 10.4 °F 86% 29.82 in 10.0 mi East 5.8 mph - N/A   Scattered Clouds
6:43 AM 14.0 °F 8.2 °F 10.4 °F 86% 29.84 in 10.0 mi SE 3.5 mph - N/A   Mostly Cloudy
7:03 AM 14.0 °F 8.2 °F 10.4 °F 86% 29.83 in 10.0 mi East 3.5 mph - N/A   Mostly Cloudy
7:05 AM 14.0 °F 6.5 °F 10.4 °F 86% 29.82 in 10.0 mi East 4.6 mph - N/A   Mostly Cloudy
7:50 AM 12.2 °F 2.9 °F 8.6 °F 85% 29.80 in 10.0 mi NE 5.8 mph - N/A   Overcast
8:50 AM 12.2 °F - 8.6 °F 85% 29.80 in 10.0 mi Calm Calm - N/A   Overcast
10:55 AM 17.6 °F - 12.2 °F 79% 29.74 in 20.0 mi Calm Calm - N/A   Mostly Cloudy
11:50 AM 24.8 °F 20.5 °F 15.8 °F 69% 29.70 in 20.0 mi East 3.5 mph - N/A   Mostly Cloudy
5:47 PM 8.6 °F 0.1 °F 5.0 °F 85% 29.61 in 7.0 mi North 4.6 mph - N/A   Scattered Clouds
6:50 PM 6.8 °F -4.8 °F 3.2 °F 85% 29.62 in 7.0 mi West 6.9 mph - N/A   Scattered Clouds
7:47 PM 8.6 °F - 5.0 °F 85% 29.62 in 7.0 mi Calm Calm - N/A   Mostly Cloudy
9:02 PM 10.4 °F -2.4 °F 6.8 °F 85% 29.61 in 10.0 mi WSW 9.2 mph - N/A   Scattered Clouds
9:22 PM 10.4 °F 0.8 °F 5.0 °F 79% 29.61 in 10.0 mi WSW 5.8 mph - N/A   Scattered Clouds
9:43 PM 8.6 °F 0.1 °F 5.0 °F 85% 29.60 in 10.0 mi West 4.6 mph - N/A   Clear
10:03 PM 8.6 °F -1.3 °F 5.0 °F 85% 29.60 in 10.0 mi SW 5.8 mph - N/A   Clear
10:23 PM 10.4 °F -0.4 °F 8.6 °F 92% 29.61 in 10.0 mi WSW 6.9 mph - N/A   Mostly Cloudy
10:43 PM 10.4 °F 0.8 °F 6.8 °F 85% 29.60 in 10.0 mi SW 5.8 mph - N/A   Scattered Clouds
11:03 PM 8.6 °F -3.7 °F 5.0 °F 85% 29.60 in 10.0 mi WSW 8.1 mph - N/A   Clear
11:23 PM 10.4 °F -0.4 °F 6.8 °F 85% 29.61 in 10.0 mi SW 6.9 mph - N/A   Clear
11:43 PM 10.4 °F 0.8 °F 6.8 °F 85% 29.61 in 10.0 mi WSW 5.8 mph - N/A   Scattered Clouds